Hourly Weather Ludzmierz

Today, 15 May, Saturday

Time Temperature Precipitation Wind Pressure Humidity
00:00 +9°C° 0 mm 1 mps 703 mmHg 96%
01:00 +9°C° 0 mm 1 mps 703 mmHg 96%
02:00 +9°C° 0 mm 1 mps 703 mmHg 96%
03:00 +9°C° 0 mm 1 mps 703 mmHg 96%
04:00 +9°C° 0 mm 1 mps 704 mmHg 96%
05:00 +9°C° 0 mm 0 mps 704 mmHg 93%
06:00 +10°C° 0 mm 0 mps 704 mmHg 89%
07:00 +11°C° 0 mm 0 mps 704 mmHg 86%
08:00 +12°C° 0.1 mm 0 mps 704 mmHg 78%
09:00 +14°C° 0.1 mm 0 mps 704 mmHg 70%
10:00 +15°C° 0.1 mm 0 mps 704 mmHg 62%
11:00 +16°C° 0.3 mm 1 mps 704 mmHg 64%
12:00 +16°C° 0.3 mm 1 mps 704 mmHg 65%
13:00 +16°C° 0.3 mm 1 mps 704 mmHg 67%
14:00 +16°C° 0.8 mm 1 mps 703 mmHg 72%
15:00 +15°C° 0.8 mm 1 mps 703 mmHg 78%
16:00 +15°C° 0.8 mm 1 mps 703 mmHg 84%
17:00 +14°C° 0.5 mm 1 mps 703 mmHg 86%
18:00 +13°C° 0.5 mm 1 mps 703 mmHg 88%
19:00 +12°C° 0.5 mm 1 mps 703 mmHg 90%
20:00 +11°C° 0 mm 1 mps 703 mmHg 91%
21:00 +11°C° 0 mm 1 mps 703 mmHg 92%
22:00 +10°C° 0 mm 1 mps 703 mmHg 93%
23:00 +10°C° 0 mm 1 mps 703 mmHg 93%

Tomorrow, 16 May, Sunday

Time Temperature Precipitation Wind Pressure Humidity
00:00 +10°C° 0 mm 1 mps 702 mmHg 94%
01:00 +9°C° 0 mm 1 mps 702 mmHg 94%
02:00 +9°C° 0 mm 1 mps 702 mmHg 94%
03:00 +9°C° 0 mm 1 mps 702 mmHg 94%
04:00 +9°C° 0 mm 1 mps 702 mmHg 94%
05:00 +10°C° 0 mm 1 mps 702 mmHg 91%
06:00 +11°C° 0 mm 1 mps 702 mmHg 88%
07:00 +13°C° 0 mm 1 mps 702 mmHg 85%
08:00 +13°C° 0.7 mm 1 mps 702 mmHg 86%
09:00 +13°C° 0.7 mm 1 mps 702 mmHg 88%
10:00 +13°C° 0.7 mm 2 mps 702 mmHg 90%
11:00 +12°C° 1.7 mm 1 mps 702 mmHg 90%
12:00 +12°C° 1.7 mm 1 mps 702 mmHg 91%
13:00 +11°C° 1.7 mm 1 mps 702 mmHg 91%
14:00 +11°C° 0.3 mm 1 mps 702 mmHg 91%
15:00 +11°C° 0.3 mm 1 mps 702 mmHg 91%
16:00 +11°C° 0.3 mm 1 mps 701 mmHg 91%
17:00 +11°C° 0 mm 1 mps 702 mmHg 92%
18:00 +10°C° 0 mm 1 mps 702 mmHg 93%
19:00 +10°C° 0 mm 1 mps 702 mmHg 93%
20:00 +9°C° 0 mm 1 mps 702 mmHg 94%
21:00 +8°C° 0 mm 1 mps 702 mmHg 95%
22:00 +7°C° 0 mm 1 mps 702 mmHg 95%
23:00 +7°C° 0 mm 1 mps 702 mmHg 95%

Day after tomorrow, 17 May, Monday

Time Temperature Precipitation Wind Pressure Humidity
00:00 +7°C° 0 mm 1 mps 702 mmHg 94%
01:00 +7°C° 0 mm 1 mps 702 mmHg 94%
02:00 +7°C° 0 mm 1 mps 702 mmHg 93%
03:00 +7°C° 0 mm 1 mps 702 mmHg 93%
04:00 +7°C° 0 mm 1 mps 701 mmHg 92%
05:00 +8°C° 0 mm 1 mps 702 mmHg 90%
06:00 +9°C° 0 mm 0 mps 702 mmHg 87%
07:00 +10°C° 0 mm 0 mps 702 mmHg 85%
08:00 +11°C° 0.2 mm 1 mps 702 mmHg 83%
09:00 +12°C° 0.2 mm 1 mps 702 mmHg 80%
10:00 +13°C° 0.2 mm 1 mps 701 mmHg 78%
11:00 +12°C° 0.8 mm 1 mps 701 mmHg 84%
12:00 +11°C° 0.8 mm 1 mps 701 mmHg 90%
13:00 +10°C° 0.8 mm 1 mps 701 mmHg 95%
14:00 +10°C° 1.7 mm 1 mps 701 mmHg 96%
15:00 +9°C° 1.7 mm 1 mps 702 mmHg 96%
16:00 +9°C° 1.7 mm 1 mps 702 mmHg 96%
17:00 +9°C° 0.1 mm 1 mps 702 mmHg 96%
18:00 +8°C° 0.1 mm 1 mps 702 mmHg 96%
19:00 +8°C° 0.1 mm 1 mps 702 mmHg 96%
20:00 +8°C° 0 mm 1 mps 702 mmHg 96%
21:00 +7°C° 0 mm 1 mps 702 mmHg 96%
22:00 +6°C° 0 mm 2 mps 702 mmHg 96%
23:00 +6°C° 0 mm 2 mps 702 mmHg 95%

18 May, Tuesday

Time Temperature Precipitation Wind Pressure Humidity
00:00 +6°C° 0 mm 2 mps 702 mmHg 95%
01:00 +6°C° 0 mm 2 mps 702 mmHg 95%
02:00 +6°C° 0 mm 2 mps 702 mmHg 95%
03:00 +6°C° 0 mm 2 mps 703 mmHg 95%
04:00 +6°C° 0 mm 2 mps 703 mmHg 95%
05:00 +7°C° 0 mm 2 mps 703 mmHg 91%
06:00 +7°C° 0 mm 2 mps 703 mmHg 87%
07:00 +8°C° 0 mm 2 mps 703 mmHg 83%
08:00 +9°C° 0 mm 3 mps 704 mmHg 78%
09:00 +10°C° 0 mm 3 mps 704 mmHg 73%
10:00 +10°C° 0 mm 4 mps 704 mmHg 67%
11:00 +11°C° 0.1 mm 4 mps 704 mmHg 67%
12:00 +11°C° 0.1 mm 4 mps 704 mmHg 66%
13:00 +11°C° 0.1 mm 4 mps 704 mmHg 66%
14:00 +12°C° 0.1 mm 4 mps 704 mmHg 65%
15:00 +12°C° 0.1 mm 4 mps 704 mmHg 65%
16:00 +12°C° 0.1 mm 4 mps 704 mmHg 64%
17:00 +11°C° 0.1 mm 3 mps 704 mmHg 72%
18:00 +9°C° 0.1 mm 3 mps 705 mmHg 80%
19:00 +8°C° 0.1 mm 2 mps 705 mmHg 88%
20:00 +7°C° 0 mm 2 mps 705 mmHg 90%
21:00 +7°C° 0 mm 2 mps 706 mmHg 92%
22:00 +6°C° 0 mm 2 mps 706 mmHg 93%
23:00 +7°C° 0.1 mm 1 mps 706 mmHg 93%

19 May, Wednesday

Time Temperature Precipitation Wind Pressure Humidity
00:00 +8°C° 0.1 mm 1 mps 706 mmHg 93%
01:00 +8°C° 0.1 mm 1 mps 706 mmHg 92%
02:00 +8°C° 0 mm 1 mps 706 mmHg 93%
03:00 +7°C° 0 mm 1 mps 706 mmHg 93%
04:00 +7°C° 0 mm 1 mps 706 mmHg 94%
05:00 +8°C° 0.1 mm 1 mps 707 mmHg 92%
06:00 +8°C° 0.1 mm 1 mps 707 mmHg 90%
07:00 +9°C° 0.1 mm 1 mps 707 mmHg 88%
08:00 +9°C° 0.2 mm 1 mps 707 mmHg 86%
09:00 +9°C° 0.2 mm 2 mps 707 mmHg 84%
10:00 +9°C° 0.2 mm 2 mps 707 mmHg 83%
11:00 +9°C° 0.4 mm 2 mps 707 mmHg 85%
12:00 +9°C° 0.4 mm 2 mps 708 mmHg 86%
13:00 +8°C° 0.4 mm 2 mps 708 mmHg 88%
14:00 +8°C° 0.2 mm 2 mps 708 mmHg 89%
15:00 +8°C° 0.2 mm 2 mps 708 mmHg 90%
16:00 +7°C° 0.2 mm 2 mps 708 mmHg 91%
17:00 +8°C° 0 mm 1 mps 708 mmHg 92%
18:00 +7°C° 0 mm 1 mps 708 mmHg 94%
19:00 +7°C° 0 mm 1 mps 708 mmHg 95%
20:00 +6°C° 0 mm 1 mps 708 mmHg 95%
21:00 +5°C° 0 mm 1 mps 709 mmHg 95%
22:00 +4°C° 0 mm 1 mps 709 mmHg 95%
23:00 +4°C° 0 mm 1 mps 709 mmHg 94%

20 May, Thursday

Time Temperature Precipitation Wind Pressure Humidity
00:00 +4°C° 0 mm 1 mps 709 mmHg 94%
01:00 +4°C° 0 mm 1 mps 709 mmHg 93%
02:00 +4°C° 0 mm 1 mps 709 mmHg 94%
03:00 +4°C° 0 mm 1 mps 709 mmHg 94%
04:00 +5°C° 0 mm 1 mps 709 mmHg 94%
05:00 +6°C° 0 mm 1 mps 710 mmHg 90%
06:00 +8°C° 0 mm 1 mps 710 mmHg 86%
07:00 +9°C° 0 mm 1 mps 710 mmHg 82%
08:00 +9°C° 0.2 mm 2 mps 710 mmHg 78%
09:00 +10°C° 0.2 mm 2 mps 710 mmHg 74%
10:00 +10°C° 0.2 mm 2 mps 710 mmHg 71%
11:00 +12°C° 0.3 mm 2 mps 710 mmHg 67%
12:00 +13°C° 0.3 mm 2 mps 709 mmHg 63%
13:00 +14°C° 0.3 mm 2 mps 709 mmHg 59%
14:00 +14°C° 0.2 mm 2 mps 709 mmHg 57%
15:00 +13°C° 0.2 mm 3 mps 709 mmHg 56%
16:00 +13°C° 0.2 mm 3 mps 709 mmHg 55%
17:00 +12°C° 0.1 mm 2 mps 709 mmHg 63%
18:00 +10°C° 0.1 mm 2 mps 709 mmHg 72%
19:00 +9°C° 0.1 mm 1 mps 709 mmHg 80%
20:00 +9°C° 0 mm 1 mps 709 mmHg 81%
21:00 +8°C° 0 mm 1 mps 709 mmHg 81%
22:00 +7°C° 0 mm 2 mps 709 mmHg 82%
23:00 +7°C° 0.2 mm 2 mps 708 mmHg 85%
Show more

We Need Your Consent

Meteoprog and our Service Providers may store and access personal data such as cookies, device identifiers or other similar technologies on your device and process such data to personalise content and ads, as well as provide social media features and to analyse the traffic.

  • Store and/or access information on your device

    Cookies, device identifiers or other information can be stored or accessed on your device for the purposes indicated above.

  • Personalised ads and content, ad and content measurement, audience insights, and products development

    Ads and content can be personalised based on a profile. More data can be added to better personalise ads and content. Ad and content performance can be measured. Insights about the audience who saw the ads and content can be derived. Such data can be used to develop or improve user’s experience, systems and software.

By clicking ‘I Agree’ you will allow the use of indicated cookies, device identifiers, web beacons or other similar technologies. Your settings can be changed in the browser on your device.

For certain purposes, legitimate interests may be relied on, rather than consent. You can read more about this in our Privacy and Cookie Policy.